Weather in Mastakh

Russia / Sakha (Yakutia) Republic     63°43′19″N   124°11′32″E
В апреле 2022 года жителям России запретили посещать сайт meteo.paraplan.net по решению Генеральной прокуратуры. Аудитория сайта уменьшилась в 10 раз. Владельцы сайта не видят смысла в поддержке погодного сервера в таких условиях. Сайт будет закрыт в октябре.
temp.,
°C
wind,
m/s
gust,
m/s
humid.,
%
clouds,
%
prec.,
mm/h
press.,
hPa
HPBL,
m
29 september, thu
thu2900:00−4w36825 0.0 1014127
03:00−4w26845 0.0 1014133
06:00−4w35845 0.0 1014137
09:00−2w35685 0.0 1013377
12:000wnw3457100 0.0 10131305
15:00+1wnw3458100 0.1 10121072
18:00−1wnw3572100 0.1 1012257
21:00−2wnw368396 0.1 1012236
30 september, fri
fri3000:00−3w358663 0.0 1012149
03:00−4w36916 0.0 1013167
06:00−4w379267 0.0 1013272
09:00−3wnw468489 0.1 1013422
12:00−1nw3570100 0.1 1013856
15:000nw4572100 0.3 1014872
18:00−2wnw258398 0.1 1015216
21:00−3wnw248854 0.1 101686
1 october, sat
sat100:00−5w24845 0.0 101685
03:00−5w24827 0.0 101788
06:00−6w248644 0.0 101886
09:00−3wnw247776 0.0 1018258
12:00−1wnw2364100 0.0 1018846
15:00−1wnw2361100 0.1 1019833
18:00−2wnw227598 0.0 102039
21:00−4wnw228865 0.1 102039
2 october, sun
sun200:00−4nw229248 0.0 102027
03:00−5nw229247 0.0 102021
06:00−5nw229452 0.0 102136
09:00−4nw238217 0.0 1021249
12:00−1nnw3361100 0.0 10211085
15:00−1nw3459100 0.1 10211011
18:00−3nw237099 0.1 102263
21:00−3wnw237699 0.1 102295
3 october, mon
mon300:00−4wnw248090 0.0 1022111
03:00−5w258463 0.0 1022130
06:00−6w368535 0.0 1022162
09:00−4wnw367616 0.0 1021345
12:00−1nw3459100 0.0 10201076
15:000nw4552100 0.0 10201230
18:00−3wnw246999 0.0 102089
21:00−3wnw377897 0.0 1020247